Location: Cossonay
(46.5833°N, 6.4167°E)
Time: 04:31:21
(UTC+00:00)

CBERS-1 - Pass Details

Date: 07 June 2020
Orbit: 770 x 776 km, 98.6° (Epoch: 04 July)

Event Time Altitude Azimuth Distance (km) Brightness Sun altitude
Rises 02:14:46 0° 11° (N) 3,261 8.5 -11.6°
Reaches altitude 10° 02:17:06 10° 8° (N) 2,330 7.5 -11.4°
Maximum altitude 02:22:10 62° 289° (WNW) 872 4.2 -10.8°
Enters shadow 02:26:39 13° 211° (SSW) 2,106 5.6 -10.3°
